Time,TemperatureF,DewpointF,PressureIn,WindDirection,WindDirectionDegrees,WindSpeedMPH,WindSpeedGustMPH,Humidity,HourlyPrecipIn,Conditions,Clouds,dailyrainin,SoftwareType,DateUTC
2013-04-23 00:01:00,55.5,41.8,30.00,SSW,209,7.0,10.4,60,0.00,SCT,,0.00,WeatherDisplay:10.37,2013-04-23 05:01:00,
2013-04-23 00:06:00,55.4,42.2,30.00,SSW,209,4.7,6.9,61,0.00,SCT,,0.00,WeatherDisplay:10.37,2013-04-23 05:06:00,
2013-04-23 00:11:00,55.2,42.0,30.00,SSW,202,5.4,10.4,61,0.00,SCT,,0.00,WeatherDisplay:10.37,2013-04-23 05:11:00,
2013-04-23 00:16:00,55.2,42.0,29.99,SW,226,5.8,9.2,61,0.00,SCT,,0.00,WeatherDisplay:10.37,2013-04-23 05:16:00,
2013-04-23 00:21:00,55.1,41.9,29.99,WSW,242,4.0,5.8,61,0.00,SCT,,0.00,WeatherDisplay:10.37,2013-04-23 05:21:00,
2013-04-23 00:26:00,55.1,41.9,29.99,SSW,213,5.1,6.9,61,0.00,SCT,,0.00,WeatherDisplay:10.37,2013-04-23 05:26:00,
2013-04-23 00:31:00,55.0,41.8,29.99,SSW,213,4.7,9.2,61,0.00,SCT,,0.00,WeatherDisplay:10.37,2013-04-23 05:31:00,
2013-04-23 00:36:00,55.1,42.3,29.99,SW,223,6.0,8.1,62,0.00,SCT,,0.00,WeatherDisplay:10.37,2013-04-23 05:36:00,
2013-04-23 00:41:00,54.7,43.2,29.99,WSW,249,6.0,8.1,65,0.00,SCT,,0.00,WeatherDisplay:10.37,2013-04-23 05:41:00,
2013-04-23 00:46:00,54.4,43.3,29.99,WSW,246,4.6,9.2,66,0.00,SCT,,0.00,WeatherDisplay:10.37,2013-04-23 05:46:00,
2013-04-23 00:51:00,54.0,43.7,29.99,WSW,244,5.8,8.1,68,0.00,SCT,,0.00,WeatherDisplay:10.37,2013-04-23 05:51:00,
2013-04-23 00:56:00,53.7,43.8,29.98,SW,222,4.6,6.9,69,0.00,SCT,,0.00,WeatherDisplay:10.37,2013-04-23 05:56:00,
2013-04-23 01:01:00,53.7,44.1,29.98,SSW,206,2.7,4.6,70,0.00,SCT,,0.00,WeatherDisplay:10.37,2013-04-23 06:01:00,
2013-04-23 01:06:00,53.4,44.2,29.98,WSW,246,2.9,4.6,71,0.00,SCT,,0.00,WeatherDisplay:10.37,2013-04-23 06:06:00,
2013-04-23 01:11:00,53.3,44.5,29.98,WSW,253,5.5,5.8,72,0.00,SCT,,0.00,WeatherDisplay:10.37,2013-04-23 06:11:00,
2013-04-23 01:16:00,53.2,44.4,29.97,West,280,3.9,9.2,72,0.00,SCT,,0.00,WeatherDisplay:10.37,2013-04-23 06:16:00,
2013-04-23 01:21:00,53.2,44.8,29.97,West,278,3.5,8.1,73,0.00,SCT,,0.00,WeatherDisplay:10.37,2013-04-23 06:21:00,
2013-04-23 01:26:00,53.2,45.1,29.97,WSW,249,3.9,5.8,74,0.00,SCT,,0.00,WeatherDisplay:10.37,2013-04-23 06:26:00,
2013-04-23 01:31:00,53.1,45.0,29.97,SW,216,1.9,6.2,74,0.00,SCT,,0.00,WeatherDisplay:10.37,2013-04-23 06:31:00,
2013-04-23 01:36:00,53.0,45.3,29.97,WSW,240,4.5,6.4,75,0.00,SCT,,0.00,WeatherDisplay:10.37,2013-04-23 06:36:00,
2013-04-23 01:41:00,52.8,45.1,29.96,SSW,205,3.7,6.9,75,0.00,SCT,,0.00,WeatherDisplay:10.37,2013-04-23 06:41:00,
2013-04-23 01:46:00,52.8,45.4,29.96,SSW,209,4.1,5.7,76,0.00,SCT,,0.00,WeatherDisplay:10.37,2013-04-23 06:46:00,
2013-04-23 01:51:00,52.7,45.7,29.95,South,174,1.3,2.3,77,0.00,SCT,,0.00,WeatherDisplay:10.37,2013-04-23 06:51:00,
2013-04-23 01:56:00,52.5,45.8,29.95,SSW,202,1.4,2.3,78,0.00,SCT,,0.00,WeatherDisplay:10.37,2013-04-23 06:56:00,
2013-04-23 02:01:00,52.3,46.0,29.94,ESE,105,2.0,3.5,79,0.00,OVC,,0.00,WeatherDisplay:10.37,2013-04-23 07:01:00,
2013-04-23 02:06:00,52.3,46.3,29.94,South,171,1.6,3.5,80,0.00,OVC,,0.00,WeatherDisplay:10.37,2013-04-23 07:06:00,
2013-04-23 02:11:00,52.1,46.4,29.93,South,170,1.2,3.5,81,0.00,OVC,,0.00,WeatherDisplay:10.37,2013-04-23 07:11:00,
2013-04-23 02:16:00,51.7,46.4,29.93,ESE,116,1.2,2.3,82,0.00,OVC,,0.00,WeatherDisplay:10.37,2013-04-23 07:16:00,
2013-04-23 02:21:00,51.4,46.7,29.93,SSW,195,2.5,5.8,84,0.00,OVC,,0.00,WeatherDisplay:10.37,2013-04-23 07:21:00,
2013-04-23 02:26:00,51.4,46.7,29.93,SE,127,2.7,4.6,84,0.00,OVC,,0.00,WeatherDisplay:10.37,2013-04-23 07:26:00,
2013-04-23 02:31:00,51.2,47.2,29.93,SSE,165,2.6,4.6,86,0.00,OVC,,0.00,WeatherDisplay:10.37,2013-04-23 07:31:00,
2013-04-23 02:36:00,51.1,47.4,29.93,SSW,201,2.8,4.6,87,0.00,OVC,,0.00,WeatherDisplay:10.37,2013-04-23 07:36:00,
2013-04-23 02:41:00,51.1,47.4,29.94,SW,222,3.2,5.8,87,0.00,OVC,,0.00,WeatherDisplay:10.37,2013-04-23 07:41:00,
2013-04-23 02:46:00,51.1,47.7,29.94,SSW,195,3.3,8.1,88,0.00,OVC,,0.00,WeatherDisplay:10.37,2013-04-23 07:46:00,
2013-04-23 02:51:00,51.0,47.9,29.95,South,181,4.2,5.8,89,0.00,OVC,,0.00,WeatherDisplay:10.37,2013-04-23 07:51:00,
2013-04-23 02:56:00,50.9,47.8,29.94,SSE,157,1.3,4.6,89,0.00,OVC,,0.00,WeatherDisplay:10.37,2013-04-23 07:56:00,
2013-04-23 03:01:00,50.9,48.1,29.93,SE,141,1.7,3.5,90,0.00,OVC,,0.00,WeatherDisplay:10.37,2013-04-23 08:01:00,
2013-04-23 03:06:00,50.8,48.0,29.93,SE,143,0.0,0.0,90,0.00,OVC,,0.00,WeatherDisplay:10.37,2013-04-23 08:06:00,
2013-04-23 03:11:00,50.6,47.8,29.94,SW,216,1.9,2.3,90,0.00,OVC,,0.00,WeatherDisplay:10.37,2013-04-23 08:11:00,
2013-04-23 03:16:00,50.6,48.1,29.93,SSE,148,2.1,5.8,91,0.00,OVC,,0.00,WeatherDisplay:10.37,2013-04-23 08:16:00,
2013-04-23 03:21:00,50.7,48.2,29.93,SW,225,0.4,1.8,91,0.00,OVC,,0.00,WeatherDisplay:10.37,2013-04-23 08:21:00,
2013-04-23 03:26:00,50.6,48.1,29.92,SW,233,2.1,4.6,91,0.00,OVC,,0.00,WeatherDisplay:10.37,2013-04-23 08:26:00,
2013-04-23 03:31:00,50.4,48.2,29.92,WSW,247,2.6,4.6,92,0.00,OVC,,0.00,WeatherDisplay:10.37,2013-04-23 08:31:00,
2013-04-23 03:36:00,50.5,48.3,29.91,SSW,196,2.3,5.8,92,0.00,OVC,,0.00,WeatherDisplay:10.37,2013-04-23 08:36:00,
2013-04-23 03:41:00,50.5,48.3,29.91,SSW,208,3.6,4.6,92,0.00,OVC,,0.00,WeatherDisplay:10.37,2013-04-23 08:41:00,
2013-04-23 03:46:00,50.4,48.2,29.92,SW,215,3.7,4.6,92,0.00,OVC,,0.00,WeatherDisplay:10.37,2013-04-23 08:46:00,
2013-04-23 03:51:00,50.3,48.4,29.91,South,189,2.8,5.8,93,0.00,OVC,,0.00,WeatherDisplay:10.37,2013-04-23 08:51:00,
2013-04-23 03:56:00,50.2,48.3,29.91,WSW,240,3.0,4.6,93,0.00,OVC,,0.00,WeatherDisplay:10.37,2013-04-23 08:56:00,
2013-04-23 04:01:00,50.1,48.2,29.91,WSW,250,1.7,3.5,93,0.00,OVC,,0.00,WeatherDisplay:10.37,2013-04-23 09:01:00,
2013-04-23 04:06:00,50.2,48.3,29.91,SSW,201,0.7,2.7,93,0.00,OVC,,0.00,WeatherDisplay:10.37,2013-04-23 09:06:00,
2013-04-23 04:11:00,50.0,48.3,29.91,SW,233,2.4,4.8,94,0.00,OVC,,0.00,WeatherDisplay:10.37,2013-04-23 09:11:00,
2013-04-23 04:16:00,50.0,48.3,29.91,WSW,239,4.3,5.8,94,0.00,OVC,,0.00,WeatherDisplay:10.37,2013-04-23 09:16:00,
2013-04-23 04:21:00,50.1,48.4,29.91,SSW,206,4.1,4.6,94,0.00,OVC,,0.00,WeatherDisplay:10.37,2013-04-23 09:21:00,
2013-04-23 04:26:00,50.0,48.3,29.91,SW,215,2.2,3.5,94,0.00,OVC,,0.00,WeatherDisplay:10.37,2013-04-23 09:26:00,
2013-04-23 04:31:00,50.0,48.3,29.91,SW,235,2.6,4.6,94,0.00,OVC,,0.00,WeatherDisplay:10.37,2013-04-23 09:31:00,
2013-04-23 04:36:00,50.0,48.6,29.91,SSW,192,2.7,6.9,95,0.00,OVC,,0.00,WeatherDisplay:10.37,2013-04-23 09:36:00,
2013-04-23 04:42:00,49.8,48.4,29.92,SSE,154,4.2,5.8,95,0.00,OVC,,0.00,WeatherDisplay:10.37,2013-04-23 09:42:00,
2013-04-23 04:47:00,49.8,48.4,29.91,WSW,252,2.4,4.6,95,0.00,OVC,,0.00,WeatherDisplay:10.37,2013-04-23 09:47:00,
2013-04-23 04:52:00,49.8,48.7,29.90,SW,220,3.6,4.6,96,0.00,OVC,,0.00,WeatherDisplay:10.37,2013-04-23 09:52:00,
2013-04-23 04:57:00,49.7,48.6,29.90,WSW,249,3.5,4.7,96,0.00,OVC,,0.00,WeatherDisplay:10.37,2013-04-23 09:57:00,
2013-04-23 05:02:00,49.7,48.6,29.89,SSW,204,2.6,3.5,96,0.00,OVC,,0.00,WeatherDisplay:10.37,2013-04-23 10:02:00,
2013-04-23 05:07:00,49.7,48.6,29.88,SSW,208,3.0,4.6,96,0.00,OVC,,0.00,WeatherDisplay:10.37,2013-04-23 10:07:00,
2013-04-23 05:12:00,49.6,48.8,29.88,WSW,247,3.9,6.9,97,0.00,OVC,,0.00,WeatherDisplay:10.37,2013-04-23 10:12:00,
2013-04-23 05:17:00,49.6,48.8,29.88,SW,225,2.8,3.5,97,0.00,OVC,,0.00,WeatherDisplay:10.37,2013-04-23 10:17:00,
2013-04-23 05:22:00,49.6,49.1,29.90,WSW,257,4.4,6.9,98,0.00,OVC,,0.00,WeatherDisplay:10.37,2013-04-23 10:22:00,
2013-04-23 05:27:00,49.5,49.0,29.91,WNW,288,5.3,8.1,98,0.00,OVC,,0.00,WeatherDisplay:10.37,2013-04-23 10:27:00,
2013-04-23 05:32:00,49.5,49.0,29.91,SSW,205,5.0,6.9,98,0.00,OVC,,0.00,WeatherDisplay:10.37,2013-04-23 10:32:00,
2013-04-23 05:37:00,49.6,49.1,29.91,SW,232,5.3,6.9,98,0.00,OVC,,0.00,WeatherDisplay:10.37,2013-04-23 10:37:00,
2013-04-23 05:42:00,49.4,49.1,29.91,WSW,243,3.4,5.3,99,0.00,OVC,,0.00,WeatherDisplay:10.37,2013-04-23 10:42:00,
2013-04-23 05:47:00,49.4,49.1,29.91,SW,235,4.5,5.8,99,0.00,OVC,,0.00,WeatherDisplay:10.37,2013-04-23 10:47:00,
2013-04-23 05:52:00,49.4,49.1,29.91,WSW,246,4.9,5.8,99,0.00,OVC,,0.00,WeatherDisplay:10.37,2013-04-23 10:52:00,
2013-04-23 05:57:00,49.3,49.3,29.92,West,271,4.9,8.1,100,0.00,OVC,,0.00,WeatherDisplay:10.37,2013-04-23 10:57:00,
2013-04-23 06:02:00,49.4,49.4,29.93,WSW,237,5.6,9.2,100,0.00,OVC,,0.00,WeatherDisplay:10.37,2013-04-23 11:02:00,
2013-04-23 06:07:00,49.4,49.4,29.93,SSE,154,7.3,10.4,100,0.00,OVC,,0.00,WeatherDisplay:10.37,2013-04-23 11:07:00,
2013-04-23 06:12:00,49.3,49.3,29.93,WSW,247,5.4,10.4,100,0.00,OVC,,0.00,WeatherDisplay:10.37,2013-04-23 11:12:00,
2013-04-23 06:17:00,49.3,49.3,29.92,SW,226,6.5,9.2,100,0.00,OVC,,0.00,WeatherDisplay:10.37,2013-04-23 11:17:00,
2013-04-23 06:22:00,49.4,49.4,29.92,SW,220,4.5,8.3,100,0.00,OVC,,0.00,WeatherDisplay:10.37,2013-04-23 11:22:00,
2013-04-23 06:27:00,49.5,49.5,29.92,WSW,246,4.7,8.1,100,0.00,OVC,,0.00,WeatherDisplay:10.37,2013-04-23 11:27:00,
2013-04-23 06:32:00,49.5,49.5,29.91,West,277,4.2,8.1,100,0.00,OVC,,0.00,WeatherDisplay:10.37,2013-04-23 11:32:00,
2013-04-23 06:37:00,49.4,49.4,29.91,West,273,4.6,10.4,100,0.00,OVC,,0.00,WeatherDisplay:10.37,2013-04-23 11:37:00,
2013-04-23 06:42:00,48.7,48.7,29.92,NW,305,7.3,12.7,100,0.00,OVC,,0.00,WeatherDisplay:10.37,2013-04-23 11:42:00,
2013-04-23 06:47:00,46.9,46.9,29.93,NNW,338,6.7,9.2,100,0.00,OVC,,0.00,WeatherDisplay:10.37,2013-04-23 11:47:00,
2013-04-23 06:52:00,45.6,45.6,29.92,WNW,291,5.5,9.8,100,0.00,OVC,,0.00,WeatherDisplay:10.37,2013-04-23 11:52:00,
2013-04-23 06:57:00,44.9,44.9,29.93,NW,308,8.9,12.7,100,0.00,OVC,,0.00,WeatherDisplay:10.37,2013-04-23 11:57:00,
2013-04-23 07:02:00,44.7,44.7,29.93,WNW,292,3.7,6.9,100,0.00,OVC,,0.00,WeatherDisplay:10.37,2013-04-23 12:02:00,
2013-04-23 07:07:00,44.5,44.5,29.93,WNW,300,7.5,11.5,100,0.00,OVC,,0.00,WeatherDisplay:10.37,2013-04-23 12:07:00,
2013-04-23 07:12:00,44.6,44.6,29.93,WNW,288,4.3,10.9,100,0.00,OVC,,0.00,WeatherDisplay:10.37,2013-04-23 12:12:00,
2013-04-23 07:17:00,43.6,43.6,29.93,NW,309,9.4,13.8,100,0.00,OVC,,0.00,WeatherDisplay:10.37,2013-04-23 12:17:00,
2013-04-23 07:22:00,42.7,42.7,29.93,NW,305,10.8,16.1,100,0.00,OVC,,0.00,WeatherDisplay:10.37,2013-04-23 12:22:00,
2013-04-23 07:27:00,42.1,42.1,29.93,WNW,292,8.5,12.7,100,0.00,OVC,,0.00,WeatherDisplay:10.37,2013-04-23 12:27:00,
2013-04-23 07:32:00,41.3,41.3,29.93,NW,326,10.3,17.3,100,0.00,OVC,,0.00,WeatherDisplay:10.37,2013-04-23 12:32:00,
2013-04-23 07:37:00,40.8,40.8,29.93,WNW,297,11.5,17.3,100,0.00,OVC,,0.00,WeatherDisplay:10.37,2013-04-23 12:37:00,
2013-04-23 07:42:00,40.5,40.5,29.94,WNW,295,9.6,17.3,100,0.00,OVC,,0.00,WeatherDisplay:10.37,2013-04-23 12:42:00,
2013-04-23 07:47:00,40.2,40.2,29.94,NW,315,9.9,16.1,100,0.00,OVC,,0.00,WeatherDisplay:10.37,2013-04-23 12:47:00,
2013-04-23 07:52:00,40.1,40.1,29.94,WNW,292,6.6,12.7,100,0.00,OVC,,0.00,WeatherDisplay:10.37,2013-04-23 12:52:00,
2013-04-23 07:57:00,39.8,39.8,29.94,NW,305,8.3,16.1,100,0.00,OVC,,0.00,WeatherDisplay:10.37,2013-04-23 12:57:00,
2013-04-23 08:02:00,39.6,39.6,29.94,NW,326,11.5,18.4,100,0.00,OVC,,0.00,WeatherDisplay:10.37,2013-04-23 13:02:00,
2013-04-23 08:07:00,39.1,39.1,29.94,WNW,302,12.9,20.7,100,0.00,OVC,,0.00,WeatherDisplay:10.37,2013-04-23 13:07:00,
2013-04-23 08:12:00,38.9,38.9,29.94,WNW,283,6.4,11.5,100,0.00,OVC,,0.00,WeatherDisplay:10.37,2013-04-23 13:12:00,
2013-04-23 08:17:00,38.5,38.2,29.95,NW,324,8.7,17.3,99,0.00,OVC,,0.00,WeatherDisplay:10.37,2013-04-23 13:17:00,
2013-04-23 08:22:00,38.3,38.0,29.95,WNW,300,6.0,11.5,99,0.00,OVC,,0.00,WeatherDisplay:10.37,2013-04-23 13:22:00,
2013-04-23 08:27:00,38.2,37.9,29.95,WNW,285,5.6,11.2,99,0.00,OVC,,0.00,WeatherDisplay:10.37,2013-04-23 13:27:00,
2013-04-23 08:32:00,37.8,37.5,29.95,WSW,246,7.9,13.8,99,0.00,OVC,,0.00,WeatherDisplay:10.37,2013-04-23 13:32:00,
2013-04-23 08:37:00,37.8,37.8,29.94,WNW,287,7.4,11.5,100,0.00,OVC,,0.00,WeatherDisplay:10.37,2013-04-23 13:37:00,
2013-04-23 08:42:00,37.7,37.7,29.94,North,360,4.1,8.1,100,0.00,OVC,,0.00,WeatherDisplay:10.37,2013-04-23 13:42:00,
2013-04-23 08:47:00,37.7,37.2,29.94,NNW,338,9.3,15.0,98,0.00,OVC,,0.00,WeatherDisplay:10.37,2013-04-23 13:47:00,
2013-04-23 08:52:00,38.0,37.5,29.94,NW,316,4.6,8.1,98,0.00,OVC,,0.00,WeatherDisplay:10.37,2013-04-23 13:52:00,
2013-04-23 08:57:00,37.5,36.7,29.94,WSW,256,8.3,13.8,97,0.00,OVC,,0.00,WeatherDisplay:10.37,2013-04-23 13:57:00,
2013-04-23 09:02:00,37.5,36.7,29.95,North,353,6.5,12.7,97,0.00,OVC,,0.00,WeatherDisplay:10.37,2013-04-23 14:02:00,
2013-04-23 09:07:00,37.3,36.5,29.94,WNW,292,4.6,6.9,97,0.00,OVC,,0.00,WeatherDisplay:10.37,2013-04-23 14:07:00,
2013-04-23 09:12:00,37.2,36.2,29.94,NNW,346,7.9,16.1,96,0.00,OVC,,0.00,WeatherDisplay:10.37,2013-04-23 14:12:00,
2013-04-23 09:17:00,37.5,36.7,29.94,NE,44,7.3,18.4,97,0.00,OVC,,0.00,WeatherDisplay:10.37,2013-04-23 14:17:00,
2013-04-23 09:22:00,37.8,36.8,29.95,NNW,336,6.4,9.0,96,0.00,OVC,,0.00,WeatherDisplay:10.37,2013-04-23 14:22:00,
2013-04-23 09:27:00,37.7,36.1,29.95,NNW,328,7.3,13.8,94,0.00,OVC,,0.00,WeatherDisplay:10.37,2013-04-23 14:27:00,
2013-04-23 09:32:00,38.0,36.4,29.95,NNW,338,7.4,12.7,94,0.00,OVC,,0.00,WeatherDisplay:10.37,2013-04-23 14:32:00,
2013-04-23 09:37:00,38.3,36.5,29.95,North,353,6.0,15.0,93,0.00,OVC,,0.00,WeatherDisplay:10.37,2013-04-23 14:37:00,
2013-04-23 09:42:00,38.4,36.0,29.95,NW,326,9.0,15.3,91,0.00,OVC,,0.00,WeatherDisplay:10.37,2013-04-23 14:42:00,
2013-04-23 09:47:00,38.2,35.8,29.95,NW,316,8.6,13.8,91,0.00,OVC,,0.00,WeatherDisplay:10.37,2013-04-23 14:47:00,
2013-04-23 09:52:00,37.8,35.1,29.96,NNW,328,9.4,17.3,90,0.00,OVC,,0.00,WeatherDisplay:10.37,2013-04-23 14:52:00,
2013-04-23 09:57:00,38.2,35.8,29.96,WNW,290,2.7,5.8,91,0.00,OVC,,0.00,WeatherDisplay:10.37,2013-04-23 14:57:00,
2013-04-23 10:02:00,38.2,35.5,29.96,NNW,340,6.2,9.2,90,0.00,OVC,,0.00,WeatherDisplay:10.37,2013-04-23 15:02:00,
2013-04-23 10:07:00,38.1,35.4,29.96,NNW,348,5.1,9.2,90,0.00,OVC,,0.00,WeatherDisplay:10.37,2013-04-23 15:07:00,
2013-04-23 10:12:00,38.1,35.4,29.96,North,355,5.9,8.1,90,0.00,OVC,,0.00,WeatherDisplay:10.37,2013-04-23 15:12:00,
2013-04-23 10:17:00,37.9,35.2,29.96,WNW,302,8.2,12.7,90,0.00,OVC,,0.00,WeatherDisplay:10.37,2013-04-23 15:17:00,
2013-04-23 10:22:00,38.1,35.4,29.96,NNE,13,6.6,11.5,90,0.00,OVC,,0.00,WeatherDisplay:10.37,2013-04-23 15:22:00,
2013-04-23 10:27:00,38.1,35.4,29.97,NNE,20,4.3,8.1,90,0.00,OVC,,0.00,WeatherDisplay:10.37,2013-04-23 15:27:00,
2013-04-23 10:32:00,38.2,35.2,29.97,WNW,288,5.8,11.5,89,0.00,OVC,,0.00,WeatherDisplay:10.37,2013-04-23 15:32:00,
2013-04-23 10:37:00,38.3,35.1,29.97,NW,322,4.8,8.1,88,0.00,OVC,,0.00,WeatherDisplay:10.37,2013-04-23 15:37:00,
2013-04-23 10:42:00,37.8,34.8,29.98,NW,322,5.3,9.2,89,0.00,OVC,,0.00,WeatherDisplay:10.37,2013-04-23 15:42:00,
2013-04-23 10:47:00,38.0,35.0,29.98,NW,316,5.7,12.6,89,0.00,OVC,,0.00,WeatherDisplay:10.37,2013-04-23 15:47:00,
2013-04-23 10:52:00,38.2,35.0,29.97,ENE,64,4.0,12.7,88,0.00,OVC,,0.00,WeatherDisplay:10.37,2013-04-23 15:52:00,
2013-04-23 10:57:00,38.3,34.8,29.97,NW,311,5.0,8.1,87,0.00,OVC,,0.00,WeatherDisplay:10.37,2013-04-23 15:57:00,
2013-04-23 11:02:00,38.5,34.7,29.97,NW,312,7.0,10.9,86,0.00,OVC,,0.00,WeatherDisplay:10.37,2013-04-23 16:02:00,
2013-04-23 11:07:00,38.4,34.3,29.97,NW,308,7.8,12.7,85,0.00,OVC,,0.00,WeatherDisplay:10.37,2013-04-23 16:07:00,
2013-04-23 11:12:00,38.3,33.9,29.97,NW,307,8.1,13.8,84,0.00,OVC,,0.00,WeatherDisplay:10.37,2013-04-23 16:12:00,
2013-04-23 11:17:00,38.4,34.6,29.97,NW,319,4.6,9.2,86,0.00,OVC,,0.00,WeatherDisplay:10.37,2013-04-23 16:17:00,
2013-04-23 11:22:00,38.4,34.6,29.97,NNW,345,6.0,8.8,86,0.00,OVC,,0.00,WeatherDisplay:10.37,2013-04-23 16:22:00,
2013-04-23 11:27:00,38.5,34.4,29.97,NNW,345,4.2,12.7,85,0.00,OVC,,0.00,WeatherDisplay:10.37,2013-04-23 16:27:00,
2013-04-23 11:32:00,38.4,34.0,29.97,WNW,300,7.6,10.4,84,0.00,OVC,,0.00,WeatherDisplay:10.37,2013-04-23 16:32:00,
2013-04-23 11:37:00,38.3,34.2,29.97,North,355,6.6,10.4,85,0.00,OVC,,0.00,WeatherDisplay:10.37,2013-04-23 16:37:00,
2013-04-23 11:42:00,38.3,34.2,29.97,NNW,329,6.3,10.4,85,0.00,OVC,,0.00,WeatherDisplay:10.37,2013-04-23 16:42:00,
2013-04-23 11:47:00,37.9,33.8,29.98,NW,322,6.4,11.5,85,0.00,OVC,,0.00,WeatherDisplay:10.37,2013-04-23 16:47:00,
2013-04-23 11:52:00,38.0,34.2,29.98,NNE,23,4.1,5.8,86,0.00,OVC,,0.00,WeatherDisplay:10.37,2013-04-23 16:52:00,
2013-04-23 11:57:00,38.2,34.1,29.97,North,357,4.7,13.1,85,0.00,OVC,,0.00,WeatherDisplay:10.37,2013-04-23 16:57:00,
2013-04-23 12:02:00,38.1,33.7,29.97,NW,311,5.9,11.5,84,0.00,OVC,,0.00,WeatherDisplay:10.37,2013-04-23 17:02:00,
2013-04-23 12:07:00,38.3,33.9,29.97,NW,322,4.8,6.9,84,0.00,OVC,,0.00,WeatherDisplay:10.37,2013-04-23 17:07:00,
2013-04-23 12:12:00,38.4,33.7,29.97,NW,307,6.1,9.2,83,0.00,OVC,,0.00,WeatherDisplay:10.37,2013-04-23 17:12:00,
2013-04-23 12:17:00,38.7,33.7,29.97,NW,321,5.8,9.2,82,0.00,OVC,,0.00,WeatherDisplay:10.37,2013-04-23 17:17:00,
2013-04-23 12:22:00,39.0,33.7,29.97,NW,307,5.0,9.2,81,0.00,OVC,,0.00,WeatherDisplay:10.37,2013-04-23 17:22:00,
2013-04-23 12:27:00,38.7,33.4,29.97,North,357,3.6,5.8,81,0.00,OVC,,0.00,WeatherDisplay:10.37,2013-04-23 17:27:00,
2013-04-23 12:32:00,38.7,33.4,29.97,NNW,331,4.1,6.9,81,0.00,OVC,,0.00,WeatherDisplay:10.37,2013-04-23 17:32:00,
2013-04-23 12:37:00,38.7,33.4,29.96,NNE,30,4.0,8.4,81,0.00,OVC,,0.00,WeatherDisplay:10.37,2013-04-23 17:37:00,
2013-04-23 12:42:00,38.6,33.3,29.96,NNW,333,3.7,8.1,81,0.00,OVC,,0.00,WeatherDisplay:10.37,2013-04-23 17:42:00,
2013-04-23 12:47:00,38.9,33.9,29.96,North,3,3.6,8.6,82,0.00,OVC,,0.00,WeatherDisplay:10.37,2013-04-23 17:47:00,
2013-04-23 12:52:00,39.0,33.4,29.96,NNW,343,7.5,12.7,80,0.00,OVC,,0.00,WeatherDisplay:10.37,2013-04-23 17:52:00,
2013-04-23 12:57:00,39.1,33.5,29.96,NW,326,2.8,8.5,80,0.00,OVC,,0.00,WeatherDisplay:10.37,2013-04-23 17:57:00,
2013-04-23 13:02:00,39.0,33.0,29.96,NNE,20,4.5,6.9,79,0.00,OVC,,0.00,WeatherDisplay:10.37,2013-04-23 18:02:00,
2013-04-23 13:07:00,39.1,33.1,29.97,North,353,4.6,6.9,79,0.00,OVC,,0.00,WeatherDisplay:10.37,2013-04-23 18:07:00,
2013-04-23 13:12:00,39.1,33.5,29.97,North,4,4.2,8.5,80,0.00,OVC,,0.00,WeatherDisplay:10.37,2013-04-23 18:12:00,
2013-04-23 13:17:00,38.8,33.2,29.96,NW,312,3.2,6.5,80,0.00,OVC,,0.00,WeatherDisplay:10.37,2013-04-23 18:17:00,
2013-04-23 13:22:00,39.0,33.4,29.96,NNW,346,4.6,10.4,80,0.00,OVC,,0.00,WeatherDisplay:10.37,2013-04-23 18:22:00,
2013-04-23 13:27:00,39.1,33.8,29.97,NE,48,3.3,6.9,81,0.00,OVC,,0.00,WeatherDisplay:10.37,2013-04-23 18:27:00,
2013-04-23 13:32:00,39.0,33.4,29.96,NW,321,3.5,5.8,80,0.00,OVC,,0.00,WeatherDisplay:10.37,2013-04-23 18:32:00,
2013-04-23 13:37:00,39.2,33.5,29.96,North,349,6.3,11.5,80,0.00,OVC,,0.00,WeatherDisplay:10.37,2013-04-23 18:37:00,
2013-04-23 13:42:00,39.0,33.0,29.96,North,7,7.8,12.7,79,0.00,OVC,,0.00,WeatherDisplay:10.37,2013-04-23 18:42:00,
2013-04-23 13:47:00,39.1,33.5,29.97,NNW,348,7.5,12.7,80,0.00,OVC,,0.00,WeatherDisplay:10.37,2013-04-23 18:47:00,
2013-04-23 13:52:00,39.1,33.1,29.97,NNW,346,6.8,10.4,79,0.00,OVC,,0.00,WeatherDisplay:10.37,2013-04-23 18:52:00,
2013-04-23 13:57:00,39.3,33.3,29.97,WNW,295,4.7,9.2,79,0.00,OVC,,0.00,WeatherDisplay:10.37,2013-04-23 18:57:00,
2013-04-23 14:02:00,39.1,32.8,29.96,North,360,7.9,12.7,78,0.00,OVC,,0.00,WeatherDisplay:10.37,2013-04-23 19:02:00,
2013-04-23 14:07:00,39.7,33.4,29.96,NNW,342,6.3,12.7,78,0.00,OVC,,0.00,WeatherDisplay:10.37,2013-04-23 19:07:00,
2013-04-23 14:12:00,39.9,33.3,29.96,North,4,6.4,12.7,77,0.00,OVC,,0.00,WeatherDisplay:10.37,2013-04-23 19:12:00,
2013-04-23 14:17:00,40.0,33.7,29.95,NNW,335,3.2,6.6,78,0.00,OVC,,0.00,WeatherDisplay:10.37,2013-04-23 19:17:00,
2013-04-23 14:22:00,40.1,33.5,29.95,NW,311,6.1,12.7,77,0.00,OVC,,0.00,WeatherDisplay:10.37,2013-04-23 19:22:00,
2013-04-23 14:27:00,40.0,33.7,29.95,NNE,30,3.8,6.9,78,0.00,OVC,,0.00,WeatherDisplay:10.37,2013-04-23 19:27:00,
2013-04-23 14:32:00,40.2,33.6,29.95,NNW,332,5.4,10.4,77,0.00,OVC,,0.00,WeatherDisplay:10.37,2013-04-23 19:32:00,
2013-04-23 14:37:00,40.0,33.0,29.95,NE,38,5.0,8.1,76,0.00,OVC,,0.00,WeatherDisplay:10.37,2013-04-23 19:37:00,
2013-04-23 14:42:00,40.1,32.5,29.95,NNE,17,5.0,16.1,74,0.00,OVC,,0.00,WeatherDisplay:10.37,2013-04-23 19:42:00,
2013-04-23 14:47:00,40.0,32.4,29.95,NNE,20,6.6,10.4,74,0.00,OVC,,0.00,WeatherDisplay:10.37,2013-04-23 19:47:00,
2013-04-23 14:52:00,40.1,32.1,29.95,NNE,13,7.6,15.0,73,0.00,OVC,,0.00,WeatherDisplay:10.37,2013-04-23 19:52:00,
2013-04-23 14:57:00,39.9,32.3,29.95,NNE,20,5.5,11.5,74,0.00,OVC,,0.00,WeatherDisplay:10.37,2013-04-23 19:57:00,
2013-04-23 15:02:00,39.9,32.3,29.95,NW,314,6.8,10.4,74,0.00,OVC,,0.00,WeatherDisplay:10.37,2013-04-23 20:02:00,
2013-04-23 15:07:00,40.4,32.8,29.95,NNW,342,4.6,6.9,74,0.00,OVC,,0.00,WeatherDisplay:10.37,2013-04-23 20:07:00,
2013-04-23 15:12:00,40.9,32.6,29.95,NNW,335,5.1,6.9,72,0.00,OVC,,0.00,WeatherDisplay:10.37,2013-04-23 20:12:00,
2013-04-23 15:17:00,40.9,32.2,29.95,NNW,336,3.8,9.2,71,0.00,OVC,,0.00,WeatherDisplay:10.37,2013-04-23 20:17:00,
2013-04-23 15:22:00,40.9,32.6,29.95,North,9,6.3,10.4,72,0.00,OVC,,0.00,WeatherDisplay:10.37,2013-04-23 20:22:00,
2013-04-23 15:27:00,40.9,32.6,29.95,North,349,0.2,3.7,72,0.00,OVC,,0.00,WeatherDisplay:10.37,2013-04-23 20:27:00,
2013-04-23 15:32:00,40.9,32.6,29.95,NW,314,4.1,6.9,72,0.00,OVC,,0.00,WeatherDisplay:10.37,2013-04-23 20:32:00,
2013-04-23 15:37:00,41.1,32.8,29.95,NNE,28,7.9,11.5,72,0.00,OVC,,0.00,WeatherDisplay:10.37,2013-04-23 20:37:00,
2013-04-23 15:42:00,41.0,32.3,29.95,North,359,6.1,9.2,71,0.00,OVC,,0.00,WeatherDisplay:10.37,2013-04-23 20:42:00,
2013-04-23 15:47:00,41.1,32.4,29.95,NW,315,4.1,8.1,71,0.00,OVC,,0.00,WeatherDisplay:10.37,2013-04-23 20:47:00,
2013-04-23 15:52:00,41.1,32.1,29.95,North,9,4.6,9.2,70,0.00,OVC,,0.00,WeatherDisplay:10.37,2013-04-23 20:52:00,
2013-04-23 15:57:00,41.2,32.2,29.95,NNW,331,3.3,6.9,70,0.00,OVC,,0.00,WeatherDisplay:10.37,2013-04-23 20:57:00,
2013-04-23 16:02:00,41.2,32.2,29.95,NW,307,4.3,6.9,70,0.00,OVC,,0.00,WeatherDisplay:10.37,2013-04-23 21:02:00,
2013-04-23 16:07:00,41.4,31.6,29.95,NNW,345,6.8,12.7,68,0.00,OVC,,0.00,WeatherDisplay:10.37,2013-04-23 21:07:00,
2013-04-23 16:12:00,41.4,31.6,29.95,WNW,297,5.4,11.5,68,0.00,OVC,,0.00,WeatherDisplay:10.37,2013-04-23 21:12:00,
2013-04-23 16:17:00,41.6,31.8,29.95,North,349,4.6,9.2,68,0.00,OVC,,0.00,WeatherDisplay:10.37,2013-04-23 21:17:00,
2013-04-23 16:22:00,41.6,31.8,29.95,NW,309,5.2,9.2,68,0.00,OVC,,0.00,WeatherDisplay:10.37,2013-04-23 21:22:00,
2013-04-23 16:27:00,41.1,31.7,29.95,North,356,4.9,8.4,69,0.00,OVC,,0.00,WeatherDisplay:10.37,2013-04-23 21:27:00,
2013-04-23 16:32:00,41.1,32.1,29.95,North,353,3.1,8.1,70,0.00,OVC,,0.00,WeatherDisplay:10.37,2013-04-23 21:32:00,
2013-04-23 16:37:00,40.9,31.9,29.95,NNW,345,2.5,5.8,70,0.00,OVC,,0.00,WeatherDisplay:10.37,2013-04-23 21:37:00,
2013-04-23 16:42:00,40.9,31.9,29.95,NW,315,6.0,9.2,70,0.00,OVC,,0.00,WeatherDisplay:10.37,2013-04-23 21:42:00,
2013-04-23 16:47:00,41.0,31.6,29.95,NE,34,4.5,8.1,69,0.00,OVC,,0.00,WeatherDisplay:10.37,2013-04-23 21:47:00,
2013-04-23 16:52:00,40.9,31.5,29.95,NNW,343,7.6,11.5,69,0.00,OVC,,0.00,WeatherDisplay:10.37,2013-04-23 21:52:00,
2013-04-23 16:57:00,40.7,31.3,29.95,NNW,348,7.7,12.7,69,0.00,OVC,,0.00,WeatherDisplay:10.37,2013-04-23 21:57:00,
2013-04-23 17:02:00,40.9,31.1,29.95,NNW,338,6.7,10.4,68,0.00,OVC,,0.00,WeatherDisplay:10.37,2013-04-23 22:02:00,
2013-04-23 17:07:00,41.1,31.7,29.95,North,355,5.3,6.9,69,0.00,OVC,,0.00,WeatherDisplay:10.37,2013-04-23 22:07:00,
2013-04-23 17:12:00,41.2,31.4,29.94,NNW,331,6.6,11.5,68,0.00,OVC,,0.00,WeatherDisplay:10.37,2013-04-23 22:12:00,
2013-04-23 17:17:00,41.3,31.5,29.95,North,356,5.4,9.2,68,0.00,OVC,,0.00,WeatherDisplay:10.37,2013-04-23 22:17:00,
2013-04-23 17:22:00,41.4,31.6,29.94,NW,309,6.7,12.7,68,0.00,OVC,,0.00,WeatherDisplay:10.37,2013-04-23 22:22:00,
2013-04-23 17:27:00,41.1,31.3,29.94,NNW,343,7.0,10.4,68,0.00,OVC,,0.00,WeatherDisplay:10.37,2013-04-23 22:27:00,
2013-04-23 17:32:00,40.9,31.5,29.94,NNW,333,5.8,13.3,69,0.00,OVC,,0.00,WeatherDisplay:10.37,2013-04-23 22:32:00,
2013-04-23 17:37:00,40.7,31.3,29.94,NNE,27,5.3,11.5,69,0.00,OVC,,0.00,WeatherDisplay:10.37,2013-04-23 22:37:00,
2013-04-23 17:42:00,40.5,31.1,29.94,NW,322,5.7,13.8,69,0.00,OVC,,0.00,WeatherDisplay:10.37,2013-04-23 22:42:00,
2013-04-23 17:47:00,40.7,31.3,29.94,North,349,6.1,10.1,69,0.00,OVC,,0.00,WeatherDisplay:10.37,2013-04-23 22:47:00,
2013-04-23 17:52:00,40.5,31.5,29.95,NW,326,2.4,5.8,70,0.00,OVC,,0.00,WeatherDisplay:10.37,2013-04-23 22:52:00,
2013-04-23 17:57:00,40.6,31.6,29.95,NW,322,2.4,9.7,70,0.00,OVC,,0.00,WeatherDisplay:10.37,2013-04-23 22:57:00,
2013-04-23 18:02:00,40.4,31.4,29.95,North,349,4.6,9.2,70,0.00,OVC,,0.00,WeatherDisplay:10.37,2013-04-23 23:02:00,
2013-04-23 18:07:00,40.3,31.3,29.95,NE,52,6.2,9.2,70,0.00,OVC,,0.00,WeatherDisplay:10.37,2013-04-23 23:07:00,
2013-04-23 18:12:00,40.3,31.3,29.95,North,359,5.2,11.5,70,0.00,OVC,,0.00,WeatherDisplay:10.37,2013-04-23 23:12:00,
2013-04-23 18:17:00,40.2,31.2,29.95,NNW,328,3.9,9.2,70,0.00,OVC,,0.00,WeatherDisplay:10.37,2013-04-23 23:17:00,
2013-04-23 18:22:00,40.2,31.2,29.95,NNW,339,6.2,9.4,70,0.00,OVC,,0.00,WeatherDisplay:10.37,2013-04-23 23:22:00,
2013-04-23 18:27:00,40.0,31.0,29.95,North,4,5.0,8.1,70,0.00,OVC,,0.00,WeatherDisplay:10.37,2013-04-23 23:27:00,
2013-04-23 18:32:00,40.1,31.1,29.95,North,359,4.2,11.5,70,0.00,OVC,,0.00,WeatherDisplay:10.37,2013-04-23 23:32:00,
2013-04-23 18:37:00,40.0,31.0,29.95,NNW,331,4.4,11.5,70,0.00,OVC,,0.00,WeatherDisplay:10.37,2013-04-23 23:37:00,
2013-04-23 18:42:00,40.1,31.4,29.95,NNW,329,2.0,7.0,71,0.00,OVC,,0.00,WeatherDisplay:10.37,2013-04-23 23:42:00,
2013-04-23 18:47:00,39.9,30.9,29.95,North,349,6.7,10.4,70,0.00,OVC,,0.00,WeatherDisplay:10.37,2013-04-23 23:47:00,
2013-04-23 18:52:00,40.0,31.0,29.95,North,353,4.2,8.1,70,0.00,OVC,,0.00,WeatherDisplay:10.37,2013-04-23 23:52:00,
2013-04-23 18:57:00,40.0,31.0,29.95,NNW,345,3.6,6.8,70,0.00,OVC,,0.00,WeatherDisplay:10.37,2013-04-23 23:57:00,
2013-04-23 19:02:00,40.0,30.6,29.95,ENE,62,2.9,9.2,69,0.00,OVC,,0.00,WeatherDisplay:10.37,2013-04-24 00:02:00,
2013-04-23 19:07:00,39.8,30.1,29.95,ENE,62,5.4,9.2,68,0.00,OVC,,0.00,WeatherDisplay:10.37,2013-04-24 00:07:00,
2013-04-23 19:12:00,39.8,30.1,29.95,NNW,342,5.9,9.2,68,0.00,OVC,,0.00,WeatherDisplay:10.37,2013-04-24 00:12:00,
2013-04-23 19:17:00,39.9,30.2,29.95,East,81,4.5,10.4,68,0.00,OVC,,0.00,WeatherDisplay:10.37,2013-04-24 00:17:00,
2013-04-23 19:22:00,39.7,30.0,29.96,North,357,2.9,9.2,68,0.00,OVC,,0.00,WeatherDisplay:10.37,2013-04-24 00:22:00,
2013-04-23 19:27:00,39.8,30.1,29.96,North,359,5.1,10.4,68,0.00,OVC,,0.00,WeatherDisplay:10.37,2013-04-24 00:27:00,
2013-04-23 19:32:00,39.8,30.1,29.96,NNE,21,6.2,11.5,68,0.00,OVC,,0.00,WeatherDisplay:10.37,2013-04-24 00:32:00,
2013-04-23 19:37:00,39.5,29.8,29.96,NW,319,6.6,9.4,68,0.00,OVC,,0.00,WeatherDisplay:10.37,2013-04-24 00:37:00,
2013-04-23 19:42:00,39.4,29.7,29.96,North,2,4.0,6.9,68,0.00,OVC,,0.00,WeatherDisplay:10.37,2013-04-24 00:42:00,
2013-04-23 19:47:00,39.5,30.2,29.96,NNE,28,2.6,6.9,69,0.00,OVC,,0.00,WeatherDisplay:10.37,2013-04-24 00:47:00,
2013-04-23 19:52:00,39.3,30.0,29.96,NW,315,5.8,11.5,69,0.00,OVC,,0.00,WeatherDisplay:10.37,2013-04-24 00:52:00,
2013-04-23 19:57:00,39.2,29.9,29.97,NNW,340,1.6,6.9,69,0.00,OVC,,0.00,WeatherDisplay:10.37,2013-04-24 00:57:00,
2013-04-23 20:02:00,39.0,30.0,29.97,NNW,343,4.4,8.8,70,0.00,OVC,,0.00,WeatherDisplay:10.37,2013-04-24 01:02:00,
2013-04-23 20:07:00,39.0,30.0,29.98,North,10,5.4,9.2,70,0.00,OVC,,0.00,WeatherDisplay:10.37,2013-04-24 01:07:00,
2013-04-23 20:12:00,38.9,29.9,29.98,NE,38,3.3,5.8,70,0.00,OVC,,0.00,WeatherDisplay:10.37,2013-04-24 01:12:00,
2013-04-23 20:17:00,38.9,29.9,29.97,NNW,342,2.1,4.6,70,0.00,OVC,,0.00,WeatherDisplay:10.37,2013-04-24 01:17:00,
2013-04-23 20:22:00,38.9,29.9,29.98,North,359,2.1,6.3,70,0.00,OVC,,0.00,WeatherDisplay:10.37,2013-04-24 01:22:00,
2013-04-23 20:27:00,38.9,29.9,29.98,East,85,0.6,4.6,70,0.00,OVC,,0.00,WeatherDisplay:10.37,2013-04-24 01:27:00,
2013-04-23 20:32:00,38.8,30.2,29.97,ENE,62,1.2,2.3,71,0.00,OVC,,0.00,WeatherDisplay:10.37,2013-04-24 01:32:00,
2013-04-23 20:37:00,38.7,30.1,29.97,NNE,20,4.2,8.1,71,0.00,OVC,,0.00,WeatherDisplay:10.37,2013-04-24 01:37:00,
2013-04-23 20:42:00,38.6,30.0,29.97,North,357,4.0,8.6,71,0.00,OVC,,0.00,WeatherDisplay:10.37,2013-04-24 01:42:00,
2013-04-23 20:47:00,38.5,29.9,29.97,SSW,213,3.8,6.9,71,0.00,OVC,,0.00,WeatherDisplay:10.37,2013-04-24 01:47:00,
2013-04-23 20:52:00,38.6,30.0,29.97,NNW,328,2.3,8.0,71,0.00,OVC,,0.00,WeatherDisplay:10.37,2013-04-24 01:52:00,
2013-04-23 20:57:00,38.6,30.0,29.98,WNW,285,4.2,6.9,71,0.00,OVC,,0.00,WeatherDisplay:10.37,2013-04-24 01:57:00,
2013-04-23 21:02:00,38.4,29.8,29.98,NNW,343,2.6,5.8,71,0.00,OVC,,0.00,WeatherDisplay:10.37,2013-04-24 02:02:00,
2013-04-23 21:07:00,38.4,30.2,29.98,NW,326,1.8,3.5,72,0.00,OVC,,0.00,WeatherDisplay:10.37,2013-04-24 02:07:00,
2013-04-23 21:12:00,38.4,30.2,29.99,NNE,20,2.8,7.9,72,0.00,OVC,,0.00,WeatherDisplay:10.37,2013-04-24 02:12:00,
2013-04-23 21:17:00,38.3,29.7,29.99,NNW,333,3.8,9.2,71,0.00,OVC,,0.00,WeatherDisplay:10.37,2013-04-24 02:17:00,
2013-04-23 21:23:00,38.2,29.6,29.98,NNW,335,1.4,5.8,71,0.00,OVC,,0.00,WeatherDisplay:10.37,2013-04-24 02:23:00,
2013-04-23 21:28:00,38.1,29.5,29.99,North,350,3.9,6.9,71,0.00,OVC,,0.00,WeatherDisplay:10.37,2013-04-24 02:28:00,
2013-04-23 21:34:00,38.1,29.9,29.99,NE,41,3.8,4.6,72,0.00,OVC,,0.00,WeatherDisplay:10.37,2013-04-24 02:34:00,
2013-04-23 21:39:00,37.9,29.7,29.99,NNW,342,2.8,8.1,72,0.00,OVC,,0.00,WeatherDisplay:10.37,2013-04-24 02:39:00,
2013-04-23 21:45:00,37.9,29.7,29.98,North,350,3.0,8.0,72,0.00,OVC,OVC,0.00,WeatherDisplay:10.37,2013-04-24 02:45:00,
2013-04-23 21:50:00,37.9,29.7,29.99,NNW,332,5.7,10.4,72,0.00,OVC,,0.00,WeatherDisplay:10.37,2013-04-24 02:50:00,
2013-04-23 21:55:00,37.9,29.7,29.99,NNW,338,5.1,8.1,72,0.00,OVC,,0.00,WeatherDisplay:10.37,2013-04-24 02:55:00,
2013-04-23 22:00:00,37.9,29.7,29.99,North,357,2.0,9.0,72,0.00,OVC,OVC,0.00,WeatherDisplay:10.37,2013-04-24 03:00:00,
2013-04-23 22:05:00,37.9,29.7,29.99,North,2,3.0,9.0,72,0.00,OVC,OVC,0.00,WeatherDisplay:10.37,2013-04-24 03:05:00,
2013-04-23 22:10:00,37.8,29.6,29.99,NW,316,3.8,5.8,72,0.00,OVC,,0.00,WeatherDisplay:10.37,2013-04-24 03:10:00,
2013-04-23 22:15:00,37.8,29.6,29.99,North,357,3.0,7.0,72,0.00,OVC,OVC,0.00,WeatherDisplay:10.37,2013-04-24 03:15:00,
2013-04-23 22:20:00,37.8,29.6,29.99,North,360,3.0,9.0,72,0.00,OVC,OVC,0.00,WeatherDisplay:10.37,2013-04-24 03:20:00,
2013-04-23 22:25:00,37.7,29.5,29.98,North,358,3.0,8.0,72,0.00,OVC,OVC,0.00,WeatherDisplay:10.37,2013-04-24 03:25:00,
2013-04-23 22:30:00,37.7,29.5,29.98,NNW,339,5.8,9.2,72,0.00,OVC,,0.00,WeatherDisplay:10.37,2013-04-24 03:30:00,
2013-04-23 22:35:00,37.5,29.3,29.97,North,349,2.9,8.1,72,0.00,OVC,,0.00,WeatherDisplay:10.37,2013-04-24 03:35:00,
2013-04-23 22:40:00,37.5,29.3,29.97,NNW,336,2.0,4.6,72,0.00,OVC,,0.00,WeatherDisplay:10.37,2013-04-24 03:40:00,
2013-04-23 22:46:00,37.3,29.1,29.97,ESE,105,1.3,6.9,72,0.00,OVC,,0.00,WeatherDisplay:10.37,2013-04-24 03:46:00,
2013-04-23 22:51:00,37.3,29.1,29.98,NE,34,1.1,5.8,72,0.00,OVC,,0.00,WeatherDisplay:10.37,2013-04-24 03:51:00,
2013-04-23 22:56:00,37.3,29.1,29.98,NE,34,1.2,4.1,72,0.00,OVC,,0.00,WeatherDisplay:10.37,2013-04-24 03:56:00,
2013-04-23 23:01:00,37.3,29.1,29.99,ENE,65,3.1,6.9,72,0.00,OVC,,0.00,WeatherDisplay:10.37,2013-04-24 04:01:00,
2013-04-23 23:02:00,37.3,29.1,29.99,NW,324,4.5,8.1,72,0.00,OVC,,0.00,WeatherDisplay:10.37,2013-04-24 04:02:00,
2013-04-23 23:07:00,37.4,29.2,29.99,West,264,2.4,4.6,72,0.00,OVC,,0.00,WeatherDisplay:10.37,2013-04-24 04:07:00,
2013-04-23 23:12:00,37.5,29.3,29.99,NNW,331,4.9,8.1,72,0.00,OVC,,0.00,WeatherDisplay:10.37,2013-04-24 04:12:00,
2013-04-23 23:17:00,37.4,29.2,29.98,ESE,115,2.3,6.9,72,0.00,OVC,,0.00,WeatherDisplay:10.37,2013-04-24 04:17:00,
2013-04-23 23:22:00,37.4,29.2,29.98,West,267,2.0,3.5,72,0.00,OVC,,0.00,WeatherDisplay:10.37,2013-04-24 04:22:00,
2013-04-23 23:27:00,37.3,28.8,29.98,NE,40,3.5,5.8,71,0.00,OVC,,0.00,WeatherDisplay:10.37,2013-04-24 04:27:00,
2013-04-23 23:32:00,37.2,28.3,29.98,NNW,336,4.3,9.2,70,0.00,OVC,,0.00,WeatherDisplay:10.37,2013-04-24 04:32:00,
2013-04-23 23:37:00,37.0,27.8,29.97,NNW,348,6.0,13.8,69,0.00,OVC,,0.00,WeatherDisplay:10.37,2013-04-24 04:37:00,
2013-04-23 23:42:00,37.2,28.0,29.98,North,357,5.4,8.1,69,0.00,OVC,,0.00,WeatherDisplay:10.37,2013-04-24 04:42:00,
2013-04-23 23:47:00,37.2,28.0,29.98,NW,318,5.4,9.2,69,0.00,OVC,,0.00,WeatherDisplay:10.37,2013-04-24 04:47:00,
2013-04-23 23:52:00,37.0,27.8,29.98,North,355,5.9,10.4,69,0.00,OVC,,0.00,WeatherDisplay:10.37,2013-04-24 04:52:00,
2013-04-23 23:57:00,37.0,27.8,29.98,NNW,331,2.8,6.9,69,0.00,OVC,,0.00,WeatherDisplay:10.37,2013-04-24 04:57:00,